Weather History for KSAW - March, 2013

Change the Weather History Date:

Friday, March 8, 2013

  Actual Average (KESC) Record (KESC)
Temperature  
Mean Temperature 20 °F -  
Max Temperature 35 °F 32 °F 46 °F (1985)
Min Temperature 4 °F 12 °F -11 °F (1986)
Degree Days  
Heating Degree Days 46    
Moisture  
Dew Point 15 °F    
Average Humidity 82    
Maximum Humidity 93    
Minimum Humidity 56    
Precipitation  
Precipitation 0.00 in - - ()
Sea Level Pressure  
Sea Level Pressure 30.35 in    
Wind  
Wind Speed 3 mph (South)    
Max Wind Speed 17 mph    
Max Gust Speed 23 mph    
Visibility 9 miles    
Events      
Averages and records for this station are not official NWS values.
T = Trace of Precipitation, MM = Missing Value Source: NWS Daily Summary

Daily Weather History Graph

Daily Weather History Graph

Search for Another Location

Airport or City:

Trip Planner

Search our weather history database for the weather conditions in past years. The results will help you decide how hot, cold, wet, or windy it might be!

Date:

Astronomy

Mar. 08, 2013 Rise Set
Actual Time 7:15 AM EST 6:46 PM EST
Civil Twilight 6:45 AM EST 7:16 PM EST
Nautical Twilight 6:10 AM EST 7:50 PM EST
Astronomical Twilight 5:35 AM EST 8:26 PM EST
Moon 5:08 AM EST (3/8) 3:32 PM EST (3/8)
Length of Visible Light 12h 30m
Length of Day
11h 30m
Waning Crescent, 12% of the Moon is Illuminated
Mar 8
Waning Crescent
Mar 11
New
Mar 19
First Quarter
Mar 27
Full
Apr 3
Last Quarter

Hourly Weather History & Observations

Time (EST) Temp. Windchill Dew Point Humidity Pressure Visibility Wind Dir Wind Speed Gust Speed Precip Events Conditions
12:17 AM 19.0 °F - 16.7 °F 91% 30.40 in 10.0 mi Calm Calm - N/A   Overcast
12:36 AM 18.5 °F - 16.3 °F 91% 30.40 in 10.0 mi Calm Calm - N/A   Overcast
12:57 AM 19.2 °F - 16.7 °F 90% 30.41 in 10.0 mi Calm Calm - N/A   Overcast
1:17 AM 19.4 °F - 17.1 °F 91% 30.41 in 10.0 mi Calm Calm - N/A   Overcast
1:36 AM 18.7 °F - 16.7 °F 92% 30.41 in 10.0 mi Calm Calm - N/A   Mostly Cloudy
1:57 AM 17.1 °F - 15.4 °F 93% 30.41 in 10.0 mi Calm Calm - N/A   Scattered Clouds
2:17 AM 16.2 °F - 14.4 °F 93% 30.41 in 7.0 mi Calm Calm - N/A   Scattered Clouds
2:36 AM 12.9 °F - 10.4 °F 90% 30.41 in 10.0 mi Calm Calm - N/A   Clear
2:57 AM 12.7 °F - 10.6 °F 91% 30.40 in 5.0 mi Calm Calm - N/A   Clear
3:17 AM 11.5 °F - 9.0 °F 90% 30.40 in 10.0 mi Calm Calm - N/A   Clear
3:36 AM 11.3 °F - 8.8 °F 90% 30.39 in 7.0 mi Calm Calm - N/A   Clear
3:57 AM 10.6 °F - 7.9 °F 89% 30.39 in 10.0 mi Calm Calm - N/A   Clear
4:17 AM 9.1 °F - 6.4 °F 89% 30.39 in 2.5 mi Calm Calm - N/A   Clear
4:36 AM 8.2 °F - 5.5 °F 89% 30.40 in 0.8 mi Calm Calm - N/A   Mist
4:57 AM 6.4 °F - 3.4 °F 87% 30.41 in 7.0 mi Calm Calm - N/A   Clear
5:16 AM 4.5 °F - 1.0 °F 86% 30.41 in 10.0 mi Calm Calm - N/A   Clear
5:37 AM 5.9 °F - 2.8 °F 87% 30.41 in 10.0 mi Calm Calm - N/A   Clear
5:57 AM 8.4 °F - 5.9 °F 89% 30.41 in 10.0 mi Calm Calm - N/A   Clear
6:50 AM 5.0 °F - 1.4 °F 85% 30.42 in 10.0 mi Calm Calm - N/A   Clear
7:50 AM 6.8 °F -0.1 °F 3.2 °F 85% 30.41 in 10.0 mi SSW 3.5 mph - N/A   Clear
8:50 AM 14.0 °F 6.5 °F 12.2 °F 93% 30.41 in 10.0 mi South 4.6 mph - N/A   Scattered Clouds
9:50 AM 19.4 °F 8.6 °F 17.6 °F 93% 30.39 in 10.0 mi SSW 9.2 mph - N/A   Clear
10:50 AM 24.8 °F 11.5 °F 19.4 °F 80% 30.39 in 10.0 mi SSW 17.3 mph 23.0 mph N/A   Scattered Clouds
11:50 AM 28.4 °F 18.0 °F 19.4 °F 69% 30.37 in 10.0 mi SSW 12.7 mph - N/A   Partly Cloudy
12:50 PM 30.2 °F 19.3 °F 19.4 °F 64% 30.35 in 10.0 mi SSW 15.0 mph 19.6 mph N/A   Scattered Clouds
1:50 PM 32.0 °F 23.0 °F 21.2 °F 64% 30.33 in 10.0 mi SSW 11.5 mph - N/A   Scattered Clouds
2:50 PM 35.6 °F 26.6 °F 21.2 °F 56% 30.30 in 10.0 mi SSW 13.8 mph - N/A   Partly Cloudy
3:50 PM 35.6 °F 26.2 °F 21.2 °F 56% 30.30 in 10.0 mi SSW 15.0 mph 20.7 mph N/A   Scattered Clouds
4:50 PM 35.6 °F 26.6 °F 21.2 °F 56% 30.27 in 10.0 mi South 13.8 mph - N/A   Partly Cloudy
5:50 PM 35.6 °F 27.5 °F 21.2 °F 56% 30.26 in 10.0 mi South 11.5 mph - N/A   Clear
6:50 PM 32.0 °F 23.0 °F 23.0 °F 69% 30.26 in 10.0 mi SSE 11.5 mph - N/A   Clear
7:50 PM 30.2 °F 21.9 °F 23.0 °F 75% 30.27 in 10.0 mi South 9.2 mph - N/A   Clear
8:50 PM 28.4 °F 20.4 °F 23.0 °F 80% 30.27 in 10.0 mi South 8.1 mph - N/A   Clear
9:50 PM 26.6 °F 18.2 °F 23.0 °F 86% 30.27 in 10.0 mi South 8.1 mph - N/A   Clear
10:17 PM 27.7 °F 18.2 °F 22.5 °F 81% 30.27 in 10.0 mi South 10.4 mph - N/A   Clear
10:36 PM 27.3 °F 17.7 °F 22.1 °F 81% 30.26 in 10.0 mi South 10.4 mph - N/A   Clear
10:57 PM 27.1 °F 17.5 °F 22.3 °F 82% 30.26 in 10.0 mi South 10.4 mph - N/A   Clear
11:16 PM 26.8 °F 16.5 °F 22.6 °F 84% 30.25 in 10.0 mi South 11.5 mph - N/A   Clear
11:37 PM 26.4 °F 16.6 °F 22.8 °F 86% 30.25 in 10.0 mi South 10.4 mph - N/A   Clear
11:57 PM 26.4 °F 16.0 °F 23.2 °F 88% 30.25 in 10.0 mi South 11.5 mph - N/A   Clear